Time,TemperatureF,DewpointF,PressureIn,WindDirection,WindDirectionDegrees,WindSpeedMPH,WindSpeedGustMPH,Humidity,HourlyPrecipIn,Conditions,Clouds,dailyrainin,SolarRadiationWatts/m^2,SoftwareType,DateUTC
2013-04-20 00:02:00,66.9,42.4,29.99,NNE,17,1.0,8.0,41,0.00,,,0.00,0,Wunderground v.1.15,2013-04-20 07:02:00,
2013-04-20 00:08:00,66.7,42.2,29.99,NW,326,1.0,8.0,41,0.00,,,0.00,0,Wunderground v.1.15,2013-04-20 07:08:00,
2013-04-20 00:14:00,66.6,42.2,30.00,NNW,346,1.0,3.0,41,0.00,,,0.00,0,Wunderground v.1.15,2013-04-20 07:14:00,
2013-04-20 00:20:00,66.5,42.1,30.00,WNW,300,3.0,5.0,41,0.00,,,0.00,0,Wunderground v.1.15,2013-04-20 07:20:00,
2013-04-20 00:26:00,66.6,41.5,29.99,NNW,341,4.0,5.0,40,0.00,,,0.00,0,Wunderground v.1.15,2013-04-20 07:26:00,
2013-04-20 00:32:00,66.5,41.4,30.00,North,350,5.0,5.0,40,0.00,,,0.00,0,Wunderground v.1.15,2013-04-20 07:32:00,
2013-04-20 00:38:00,66.5,40.8,30.00,North,349,5.0,5.0,39,0.00,,,0.00,0,Wunderground v.1.15,2013-04-20 07:38:00,
2013-04-20 00:44:00,66.3,40.6,30.00,NNW,331,4.0,5.0,39,0.00,,,0.00,0,Wunderground v.1.15,2013-04-20 07:44:00,
2013-04-20 00:50:00,66.1,40.4,30.00,North,349,4.0,5.0,39,0.00,,,0.00,0,Wunderground v.1.15,2013-04-20 07:50:00,
2013-04-20 00:56:00,65.8,40.8,30.00,NW,320,4.0,5.0,40,0.00,,,0.00,0,Wunderground v.1.15,2013-04-20 07:56:00,
2013-04-20 01:02:00,65.5,40.5,30.00,WNW,289,3.0,7.0,40,0.00,,,0.00,0,Wunderground v.1.15,2013-04-20 08:02:00,
2013-04-20 01:08:00,65.3,40.3,30.00,NW,326,5.0,10.0,40,0.00,,,0.00,0,Wunderground v.1.15,2013-04-20 08:08:00,
2013-04-20 01:14:00,65.2,40.3,30.00,NW,322,5.0,5.0,40,0.00,,,0.00,0,Wunderground v.1.15,2013-04-20 08:14:00,
2013-04-20 01:20:00,65.1,40.2,30.00,NW,325,4.0,4.0,40,0.00,,,0.00,0,Wunderground v.1.15,2013-04-20 08:20:00,
2013-04-20 01:26:00,64.6,40.4,30.01,NW,311,3.0,5.0,41,0.00,,,0.00,0,Wunderground v.1.15,2013-04-20 08:26:00,
2013-04-20 01:32:00,64.1,39.9,30.01,NNW,327,2.0,2.0,41,0.00,,,0.00,0,Wunderground v.1.15,2013-04-20 08:32:00,
2013-04-20 01:38:00,63.7,40.2,30.00,NW,321,2.0,4.0,42,0.00,,,0.00,0,Wunderground v.1.15,2013-04-20 08:38:00,
2013-04-20 01:44:00,63.3,40.4,30.01,NW,316,2.0,7.0,43,0.00,,,0.00,0,Wunderground v.1.15,2013-04-20 08:44:00,
2013-04-20 01:50:00,63.1,39.6,30.01,NW,325,2.0,3.0,42,0.00,,,0.00,0,Wunderground v.1.15,2013-04-20 08:50:00,
2013-04-20 01:56:00,62.7,40.5,30.01,NNW,332,1.0,3.0,44,0.00,,,0.00,0,Wunderground v.1.15,2013-04-20 08:56:00,
2013-04-20 02:02:00,62.5,40.3,30.01,NW,306,1.0,3.0,44,0.00,,,0.00,0,Wunderground v.1.15,2013-04-20 09:02:00,
2013-04-20 02:08:00,62.3,39.5,30.01,NW,316,2.0,12.0,43,0.00,,,0.00,0,Wunderground v.1.15,2013-04-20 09:08:00,
2013-04-20 02:14:00,62.3,39.5,30.01,North,360,2.0,3.0,43,0.00,,,0.00,0,Wunderground v.1.15,2013-04-20 09:14:00,
2013-04-20 02:20:00,62.3,39.5,30.00,NNW,329,3.0,3.0,43,0.00,,,0.00,0,Wunderground v.1.15,2013-04-20 09:20:00,
2013-04-20 02:26:00,62.4,39.6,30.00,NNW,328,3.0,4.0,43,0.00,,,0.00,0,Wunderground v.1.15,2013-04-20 09:26:00,
2013-04-20 02:32:00,62.6,39.8,30.00,NW,311,3.0,5.0,43,0.00,,,0.00,0,Wunderground v.1.15,2013-04-20 09:32:00,
2013-04-20 02:38:00,62.9,39.4,30.01,NW,308,3.0,5.0,42,0.00,,,0.00,0,Wunderground v.1.15,2013-04-20 09:38:00,
2013-04-20 02:43:00,63.2,39.1,30.01,NW,320,3.0,6.0,41,0.00,,,0.00,0,Wunderground v.1.15,2013-04-20 09:43:00,
2013-04-20 02:50:00,63.4,39.3,30.00,NNW,336,3.0,4.0,41,0.00,,,0.00,0,Wunderground v.1.15,2013-04-20 09:50:00,
2013-04-20 02:56:00,63.5,39.4,30.00,North,355,4.0,6.0,41,0.00,,,0.00,0,Wunderground v.1.15,2013-04-20 09:56:00,
2013-04-20 03:02:00,63.5,38.7,30.00,NNW,340,3.0,15.0,40,0.00,,,0.00,0,Wunderground v.1.15,2013-04-20 10:02:00,
2013-04-20 03:08:00,63.5,39.4,30.00,North,355,3.0,15.0,41,0.00,,,0.00,0,Wunderground v.1.15,2013-04-20 10:08:00,
2013-04-20 03:14:00,63.4,38.6,30.00,WNW,303,3.0,3.0,40,0.00,,,0.00,0,Wunderground v.1.15,2013-04-20 10:14:00,
2013-04-20 03:20:00,63.6,38.2,30.00,NNW,340,4.0,8.0,39,0.00,,,0.00,0,Wunderground v.1.15,2013-04-20 10:20:00,
2013-04-20 03:26:00,63.9,37.8,30.00,NNW,337,3.0,8.0,38,0.00,,,0.00,0,Wunderground v.1.15,2013-04-20 10:26:00,
2013-04-20 03:32:00,63.9,37.8,30.00,North,360,3.0,3.0,38,0.00,,,0.00,0,Wunderground v.1.15,2013-04-20 10:32:00,
2013-04-20 03:38:00,63.9,37.8,30.00,NW,323,3.0,4.0,38,0.00,,,0.00,0,Wunderground v.1.15,2013-04-20 10:38:00,
2013-04-20 03:44:00,63.8,37.7,30.01,NW,323,3.0,6.0,38,0.00,,,0.00,0,Wunderground v.1.15,2013-04-20 10:44:00,
2013-04-20 03:50:00,63.5,38.1,30.01,North,355,3.0,3.0,39,0.00,,,0.00,0,Wunderground v.1.15,2013-04-20 10:50:00,
2013-04-20 03:56:00,63.2,37.8,30.01,NW,317,3.0,5.0,39,0.00,,,0.00,0,Wunderground v.1.15,2013-04-20 10:56:00,
2013-04-20 04:02:00,62.9,37.5,30.01,NW,312,2.0,4.0,39,0.00,,,0.00,0,Wunderground v.1.15,2013-04-20 11:02:00,
2013-04-20 04:08:00,62.6,37.3,30.01,NW,316,1.0,12.0,39,0.00,,,0.00,0,Wunderground v.1.15,2013-04-20 11:08:00,
2013-04-20 04:14:00,62.5,37.2,30.01,NNE,22,2.0,3.0,39,0.00,,,0.00,0,Wunderground v.1.15,2013-04-20 11:14:00,
2013-04-20 04:20:00,62.4,37.7,30.01,North,360,2.0,2.0,40,0.00,,,0.00,0,Wunderground v.1.15,2013-04-20 11:20:00,
2013-04-20 04:26:00,62.2,37.6,30.01,NW,309,1.0,2.0,40,0.00,,,0.00,0,Wunderground v.1.15,2013-04-20 11:26:00,
2013-04-20 04:32:00,62.4,37.1,30.01,NW,309,2.0,2.0,39,0.00,,,0.00,0,Wunderground v.1.15,2013-04-20 11:32:00,
2013-04-20 04:38:00,62.4,37.1,30.01,NW,309,3.0,4.0,39,0.00,,,0.00,0,Wunderground v.1.15,2013-04-20 11:38:00,
2013-04-20 04:44:00,62.5,37.2,30.02,NNW,346,3.0,3.0,39,0.00,,,0.00,0,Wunderground v.1.15,2013-04-20 11:44:00,
2013-04-20 04:50:00,62.6,37.3,30.02,NW,316,2.0,3.0,39,0.00,,,0.00,0,Wunderground v.1.15,2013-04-20 11:50:00,
2013-04-20 04:56:00,62.4,37.1,30.02,NW,323,2.0,4.0,39,0.00,,,0.00,0,Wunderground v.1.15,2013-04-20 11:56:00,
2013-04-20 05:02:00,62.4,37.1,30.02,NNW,331,3.0,13.0,39,0.00,,,0.00,0,Wunderground v.1.15,2013-04-20 12:02:00,
2013-04-20 05:08:00,62.4,37.1,30.02,NW,317,4.0,13.0,39,0.00,,,0.00,0,Wunderground v.1.15,2013-04-20 12:08:00,
2013-04-20 05:13:00,62.5,37.2,30.01,NW,315,5.0,7.0,39,0.00,,,0.00,0,Wunderground v.1.15,2013-04-20 12:13:00,
2013-04-20 05:20:00,62.4,37.1,30.02,North,350,3.0,3.0,39,0.00,,,0.00,0,Wunderground v.1.15,2013-04-20 12:20:00,
2013-04-20 05:26:00,62.2,37.6,30.02,NNW,346,2.0,5.0,40,0.00,,,0.00,0,Wunderground v.1.15,2013-04-20 12:26:00,
2013-04-20 05:32:00,62.2,37.6,30.02,NW,320,2.0,7.0,40,0.00,,,0.00,0,Wunderground v.1.15,2013-04-20 12:32:00,
2013-04-20 05:38:00,62.3,37.0,30.01,NNW,330,3.0,7.0,39,0.00,,,0.00,0,Wunderground v.1.15,2013-04-20 12:38:00,
2013-04-20 05:44:00,62.3,37.7,30.01,NNW,338,3.0,3.0,40,0.00,,,0.00,0,Wunderground v.1.15,2013-04-20 12:44:00,
2013-04-20 05:50:00,62.3,37.0,30.01,North,360,4.0,4.0,39,0.00,,,0.00,0,Wunderground v.1.15,2013-04-20 12:50:00,
2013-04-20 05:56:00,62.1,36.8,30.01,North,350,3.0,7.0,39,0.00,,,0.00,0,Wunderground v.1.15,2013-04-20 12:56:00,
2013-04-20 06:02:00,62.1,37.5,30.01,NNW,344,3.0,5.0,40,0.00,,,0.00,0,Wunderground v.1.15,2013-04-20 13:02:00,
2013-04-20 06:08:00,62.0,37.4,30.01,NNW,344,4.0,17.0,40,0.00,,,0.00,0,Wunderground v.1.15,2013-04-20 13:08:00,
2013-04-20 06:14:00,61.9,37.9,30.01,NNW,341,3.0,7.0,41,0.00,,,0.00,0,Wunderground v.1.15,2013-04-20 13:14:00,
2013-04-20 06:20:00,61.6,37.7,30.01,NNE,20,3.0,3.0,41,0.00,,,0.00,0,Wunderground v.1.15,2013-04-20 13:20:00,
2013-04-20 06:26:00,61.5,37.6,30.02,NNW,329,3.0,5.0,41,0.00,,,0.00,5,Wunderground v.1.15,2013-04-20 13:26:00,
2013-04-20 06:32:00,61.3,37.4,30.02,NNW,339,3.0,8.0,41,0.00,,,0.00,9,Wunderground v.1.15,2013-04-20 13:32:00,
2013-04-20 06:38:00,61.3,38.0,30.02,North,355,3.0,8.0,42,0.00,,,0.00,14,Wunderground v.1.15,2013-04-20 13:38:00,
2013-04-20 06:44:00,61.2,37.9,30.01,NW,323,3.0,17.0,42,0.00,,,0.00,18,Wunderground v.1.15,2013-04-20 13:44:00,
2013-04-20 06:50:00,61.0,38.3,30.02,NNW,333,4.0,4.0,43,0.00,,,0.00,21,Wunderground v.1.15,2013-04-20 13:50:00,
2013-04-20 06:56:00,60.9,38.2,30.02,North,355,4.0,12.0,43,0.00,,,0.00,26,Wunderground v.1.15,2013-04-20 13:56:00,
2013-04-20 07:02:00,60.8,38.1,30.02,NW,325,4.0,5.0,43,0.00,,,0.00,30,Wunderground v.1.15,2013-04-20 14:02:00,
2013-04-20 07:08:00,60.7,38.6,30.02,NNW,340,4.0,15.0,44,0.00,,,0.00,56,Wunderground v.1.15,2013-04-20 14:08:00,
2013-04-20 07:14:00,60.9,38.8,30.02,North,355,4.0,11.0,44,0.00,,,0.00,35,Wunderground v.1.15,2013-04-20 14:14:00,
2013-04-20 07:20:00,61.0,38.9,30.02,NNW,345,4.0,4.0,44,0.00,,,0.00,90,Wunderground v.1.15,2013-04-20 14:20:00,
2013-04-20 07:26:00,61.1,39.0,30.03,NNW,345,3.0,6.0,44,0.00,,,0.00,111,Wunderground v.1.15,2013-04-20 14:26:00,
2013-04-20 07:32:00,61.3,39.8,30.03,NNE,15,3.0,7.0,45,0.00,,,0.00,135,Wunderground v.1.15,2013-04-20 14:32:00,
2013-04-20 07:37:00,61.3,39.2,30.03,NNW,338,4.0,7.0,44,0.00,,,0.00,160,Wunderground v.1.15,2013-04-20 14:37:00,
2013-04-20 07:44:00,61.6,39.5,30.03,NNE,28,3.0,8.0,44,0.00,,,0.00,186,Wunderground v.1.15,2013-04-20 14:44:00,
2013-04-20 07:50:00,61.9,39.7,30.03,NNW,346,4.0,10.0,44,0.00,,,0.00,213,Wunderground v.1.15,2013-04-20 14:50:00,
2013-04-20 07:56:00,62.1,39.3,30.03,NW,322,5.0,12.0,43,0.00,,,0.00,239,Wunderground v.1.15,2013-04-20 14:56:00,
2013-04-20 08:02:00,62.4,39.6,30.03,NW,323,6.0,9.0,43,0.00,,,0.00,258,Wunderground v.1.15,2013-04-20 15:02:00,
2013-04-20 08:08:00,62.7,39.9,30.03,NW,321,6.0,19.0,43,0.00,,,0.00,279,Wunderground v.1.15,2013-04-20 15:08:00,
2013-04-20 08:14:00,62.9,39.4,30.03,NNE,13,6.0,9.0,42,0.00,,,0.00,301,Wunderground v.1.15,2013-04-20 15:14:00,
2013-04-20 08:20:00,62.9,39.4,30.04,NE,43,6.0,6.0,42,0.00,,,0.00,323,Wunderground v.1.15,2013-04-20 15:20:00,
2013-04-20 08:26:00,63.2,39.7,30.04,NNW,327,6.0,13.0,42,0.00,,,0.00,345,Wunderground v.1.15,2013-04-20 15:26:00,
2013-04-20 08:32:00,63.4,40.5,30.04,North,360,6.0,12.0,43,0.00,,,0.00,364,Wunderground v.1.15,2013-04-20 15:32:00,
2013-04-20 08:38:00,63.6,40.1,30.04,NW,324,5.0,12.0,42,0.00,,,0.00,387,Wunderground v.1.15,2013-04-20 15:38:00,
2013-04-20 08:44:00,63.9,40.3,30.04,NNW,341,5.0,7.0,42,0.00,,,0.00,408,Wunderground v.1.15,2013-04-20 15:44:00,
2013-04-20 08:49:00,64.0,41.0,30.04,WNW,300,6.0,11.0,43,0.00,,,0.00,429,Wunderground v.1.15,2013-04-20 15:49:00,
2013-04-20 08:56:00,64.2,40.6,30.03,NW,309,7.0,11.0,42,0.00,,,0.00,446,Wunderground v.1.15,2013-04-20 15:56:00,
2013-04-20 09:02:00,64.4,40.2,30.03,NNW,346,8.0,23.0,41,0.00,,,0.00,464,Wunderground v.1.15,2013-04-20 16:02:00,
2013-04-20 09:08:00,65.0,40.7,30.03,North,360,5.0,23.0,41,0.00,,,0.00,487,Wunderground v.1.15,2013-04-20 16:08:00,
2013-04-20 09:14:00,65.5,40.5,30.03,WNW,302,5.0,13.0,40,0.00,,,0.00,508,Wunderground v.1.15,2013-04-20 16:14:00,
2013-04-20 09:20:00,65.5,40.5,30.03,North,355,7.0,7.0,40,0.00,,,0.00,527,Wunderground v.1.15,2013-04-20 16:20:00,
2013-04-20 09:26:00,65.8,41.4,30.03,NW,325,6.0,7.0,41,0.00,,,0.00,547,Wunderground v.1.15,2013-04-20 16:26:00,
2013-04-20 09:32:00,66.3,41.2,30.03,NNE,31,6.0,6.0,40,0.00,,,0.00,566,Wunderground v.1.15,2013-04-20 16:32:00,
2013-04-20 09:38:00,66.7,40.9,30.03,NNW,329,5.0,8.0,39,0.00,,,0.00,585,Wunderground v.1.15,2013-04-20 16:38:00,
2013-04-20 09:44:00,66.7,41.6,30.02,NW,317,6.0,13.0,40,0.00,,,0.00,606,Wunderground v.1.15,2013-04-20 16:44:00,
2013-04-20 09:50:00,67.3,41.5,30.02,NW,321,6.0,6.0,39,0.00,,,0.00,624,Wunderground v.1.15,2013-04-20 16:50:00,
2013-04-20 09:55:00,67.5,41.0,30.02,NNW,338,6.0,16.0,38,0.00,,,0.00,643,Wunderground v.1.15,2013-04-20 16:55:00,
2013-04-20 10:02:00,67.9,40.7,30.02,NNW,338,6.0,22.0,37,0.00,,,0.00,664,Wunderground v.1.15,2013-04-20 17:02:00,
2013-04-20 10:08:00,68.4,41.8,30.02,WSW,257,6.0,22.0,38,0.00,,,0.00,680,Wunderground v.1.15,2013-04-20 17:08:00,
2013-04-20 10:14:00,68.9,42.2,30.02,WNW,302,5.0,10.0,38,0.00,,,0.00,696,Wunderground v.1.15,2013-04-20 17:14:00,
2013-04-20 10:20:00,69.2,41.8,30.02,NNE,25,6.0,6.0,37,0.00,,,0.00,712,Wunderground v.1.15,2013-04-20 17:20:00,
2013-04-20 10:26:00,69.7,41.5,30.01,NW,312,6.0,8.0,36,0.00,,,0.00,729,Wunderground v.1.15,2013-04-20 17:26:00,
2013-04-20 10:32:00,70.0,41.8,30.01,NW,304,6.0,6.0,36,0.00,,,0.00,744,Wunderground v.1.15,2013-04-20 17:32:00,
2013-04-20 10:38:00,70.2,41.3,30.01,NNW,331,6.0,12.0,35,0.00,,,0.00,758,Wunderground v.1.15,2013-04-20 17:38:00,
2013-04-20 10:44:00,71.0,42.0,30.01,NNW,342,5.0,9.0,35,0.00,,,0.00,775,Wunderground v.1.15,2013-04-20 17:44:00,
2013-04-20 10:50:00,71.2,42.1,30.01,NNW,347,6.0,6.0,35,0.00,,,0.00,789,Wunderground v.1.15,2013-04-20 17:50:00,
2013-04-20 10:56:00,71.7,42.6,30.01,West,281,6.0,12.0,35,0.00,,,0.00,802,Wunderground v.1.15,2013-04-20 17:56:00,
2013-04-20 11:02:00,71.8,41.9,30.01,NW,306,5.0,9.0,34,0.00,,,0.00,816,Wunderground v.1.15,2013-04-20 18:02:00,
2013-04-20 11:08:00,72.1,42.2,30.01,North,355,6.0,25.0,34,0.00,,,0.00,830,Wunderground v.1.15,2013-04-20 18:08:00,
2013-04-20 11:14:00,72.2,42.3,30.01,NNW,338,7.0,7.0,34,0.00,,,0.00,844,Wunderground v.1.15,2013-04-20 18:14:00,
2013-04-20 11:20:00,72.5,41.7,30.01,WNW,289,6.0,6.0,33,0.00,,,0.00,854,Wunderground v.1.15,2013-04-20 18:20:00,
2013-04-20 11:26:00,72.7,42.7,30.01,North,360,5.0,8.0,34,0.00,,,0.00,868,Wunderground v.1.15,2013-04-20 18:26:00,
2013-04-20 11:32:00,73.4,42.5,30.01,NNW,340,3.0,8.0,33,0.00,,,0.00,884,Wunderground v.1.15,2013-04-20 18:32:00,
2013-04-20 11:38:00,73.6,41.9,30.00,NNW,340,4.0,8.0,32,0.00,,,0.00,895,Wunderground v.1.15,2013-04-20 18:38:00,
2013-04-20 11:44:00,74.3,42.5,30.00,North,5,4.0,6.0,32,0.00,,,0.00,904,Wunderground v.1.15,2013-04-20 18:44:00,
2013-04-20 11:50:00,74.3,42.5,30.00,NW,309,5.0,5.0,32,0.00,,,0.00,912,Wunderground v.1.15,2013-04-20 18:50:00,
2013-04-20 11:56:00,74.6,42.0,30.00,NW,323,6.0,7.0,31,0.00,,,0.00,926,Wunderground v.1.15,2013-04-20 18:56:00,
2013-04-20 12:02:00,74.9,41.4,29.99,NW,310,5.0,10.0,30,0.00,,,0.00,928,Wunderground v.1.15,2013-04-20 19:02:00,
2013-04-20 12:08:00,75.3,41.7,29.99,North,351,6.0,24.0,30,0.00,,,0.00,939,Wunderground v.1.15,2013-04-20 19:08:00,
2013-04-20 12:14:00,75.5,39.2,29.99,NW,325,6.0,11.0,27,0.00,,,0.00,947,Wunderground v.1.15,2013-04-20 19:14:00,
2013-04-20 12:20:00,75.9,40.4,29.98,NW,319,5.0,5.0,28,0.00,,,0.00,951,Wunderground v.1.15,2013-04-20 19:20:00,
2013-04-20 12:26:00,76.0,41.4,29.98,WNW,300,6.0,12.0,29,0.00,,,0.00,953,Wunderground v.1.15,2013-04-20 19:26:00,
2013-04-20 12:32:00,76.4,39.9,29.98,West,280,7.0,7.0,27,0.00,,,0.00,958,Wunderground v.1.15,2013-04-20 19:32:00,
2013-04-20 12:38:00,76.6,42.0,29.98,NW,320,5.0,9.0,29,0.00,,,0.00,963,Wunderground v.1.15,2013-04-20 19:38:00,
2013-04-20 12:44:00,76.8,41.2,29.97,NW,313,4.0,10.0,28,0.00,,,0.00,963,Wunderground v.1.15,2013-04-20 19:44:00,
2013-04-20 12:50:00,77.1,41.5,29.97,NW,323,4.0,4.0,28,0.00,,,0.00,974,Wunderground v.1.15,2013-04-20 19:50:00,
2013-04-20 12:56:00,77.6,41.0,29.97,NNW,332,3.0,10.0,27,0.00,,,0.00,977,Wunderground v.1.15,2013-04-20 19:56:00,
2013-04-20 13:02:00,78.1,42.3,29.97,WNW,293,3.0,7.0,28,0.00,,,0.00,979,Wunderground v.1.15,2013-04-20 20:02:00,
2013-04-20 13:08:00,78.7,40.9,29.97,NNE,13,3.0,21.0,26,0.00,,,0.00,979,Wunderground v.1.15,2013-04-20 20:08:00,
2013-04-20 13:14:00,78.6,39.8,29.96,WNW,298,5.0,5.0,25,0.00,,,0.00,981,Wunderground v.1.15,2013-04-20 20:14:00,
2013-04-20 13:20:00,78.8,37.9,29.96,NW,306,5.0,5.0,23,0.00,,,0.00,986,Wunderground v.1.15,2013-04-20 20:20:00,
2013-04-20 13:26:00,78.9,39.0,29.96,WNW,291,5.0,8.0,24,0.00,,,0.00,983,Wunderground v.1.15,2013-04-20 20:26:00,
2013-04-20 13:32:00,79.2,37.1,29.95,NW,321,6.0,6.0,22,0.00,,,0.00,984,Wunderground v.1.15,2013-04-20 20:32:00,
2013-04-20 13:38:00,79.3,38.3,29.95,NW,317,5.0,10.0,23,0.00,,,0.00,979,Wunderground v.1.15,2013-04-20 20:38:00,
2013-04-20 13:44:00,79.9,40.9,29.95,WNW,290,4.0,5.0,25,0.00,,,0.00,979,Wunderground v.1.15,2013-04-20 20:44:00,
2013-04-20 13:50:00,79.9,40.9,29.95,WNW,302,4.0,4.0,25,0.00,,,0.00,970,Wunderground v.1.15,2013-04-20 20:50:00,
2013-04-20 13:56:00,80.1,37.8,29.94,WNW,285,5.0,6.0,22,0.00,,,0.00,972,Wunderground v.1.15,2013-04-20 20:56:00,
2013-04-20 14:02:00,80.2,37.9,29.94,NW,309,5.0,20.0,22,0.00,,,0.00,967,Wunderground v.1.15,2013-04-20 21:02:00,
2013-04-20 14:08:00,80.5,39.3,29.94,NNE,32,4.0,20.0,23,0.00,,,0.00,962,Wunderground v.1.15,2013-04-20 21:08:00,
2013-04-20 14:14:00,81.1,38.6,29.94,WNW,302,4.0,10.0,22,0.00,,,0.00,954,Wunderground v.1.15,2013-04-20 21:14:00,
2013-04-20 14:20:00,80.9,38.5,29.93,North,9,6.0,6.0,22,0.00,,,0.00,951,Wunderground v.1.15,2013-04-20 21:20:00,
2013-04-20 14:26:00,81.0,39.7,29.93,NW,311,6.0,12.0,23,0.00,,,0.00,940,Wunderground v.1.15,2013-04-20 21:26:00,
2013-04-20 14:32:00,81.1,37.5,29.93,NNW,327,6.0,17.0,21,0.00,,,0.00,930,Wunderground v.1.15,2013-04-20 21:32:00,
2013-04-20 14:38:00,81.7,40.3,29.93,NW,312,5.0,17.0,23,0.00,,,0.00,916,Wunderground v.1.15,2013-04-20 21:38:00,
2013-04-20 14:44:00,82.4,38.5,29.92,North,11,4.0,6.0,21,0.00,,,0.00,909,Wunderground v.1.15,2013-04-20 21:44:00,
2013-04-20 14:50:00,82.7,40.0,29.92,NNW,329,2.0,7.0,22,0.00,,,0.00,900,Wunderground v.1.15,2013-04-20 21:50:00,
2013-04-20 14:56:00,83.1,40.3,29.92,NW,314,2.0,7.0,22,0.00,,,0.00,888,Wunderground v.1.15,2013-04-20 21:56:00,
2013-04-20 15:02:00,83.6,39.5,29.92,NNW,338,2.0,21.0,21,0.00,,,0.00,881,Wunderground v.1.15,2013-04-20 22:02:00,
2013-04-20 15:08:00,83.7,37.0,29.91,NNE,28,3.0,21.0,19,0.00,,,0.00,872,Wunderground v.1.15,2013-04-20 22:08:00,
2013-04-20 15:14:00,83.6,38.3,29.91,NNW,344,4.0,4.0,20,0.00,,,0.00,856,Wunderground v.1.15,2013-04-20 22:14:00,
2013-04-20 15:20:00,83.7,38.4,29.91,NW,315,3.0,3.0,20,0.00,,,0.00,847,Wunderground v.1.15,2013-04-20 22:20:00,
2013-04-20 15:26:00,83.8,37.1,29.91,NNE,26,3.0,8.0,19,0.00,,,0.00,835,Wunderground v.1.15,2013-04-20 22:26:00,
2013-04-20 15:32:00,83.8,38.4,29.91,NW,324,4.0,7.0,20,0.00,,,0.00,821,Wunderground v.1.15,2013-04-20 22:32:00,
2013-04-20 15:38:00,83.6,37.0,29.91,WNW,302,5.0,13.0,19,0.00,,,0.00,807,Wunderground v.1.15,2013-04-20 22:38:00,
2013-04-20 15:44:00,83.8,37.1,29.90,WNW,295,4.0,8.0,19,0.00,,,0.00,788,Wunderground v.1.15,2013-04-20 22:44:00,
2013-04-20 15:50:00,84.0,35.9,29.90,NW,308,3.0,3.0,18,0.00,,,0.00,779,Wunderground v.1.15,2013-04-20 22:50:00,
2013-04-20 15:56:00,84.0,37.3,29.90,NW,311,3.0,5.0,19,0.00,,,0.00,761,Wunderground v.1.15,2013-04-20 22:56:00,
2013-04-20 16:02:00,84.1,34.6,29.90,WNW,284,4.0,19.0,17,0.00,,,0.00,745,Wunderground v.1.15,2013-04-20 23:02:00,
2013-04-20 16:08:00,84.3,36.2,29.90,NW,321,3.0,19.0,18,0.00,,,0.00,729,Wunderground v.1.15,2013-04-20 23:08:00,
2013-04-20 16:14:00,84.5,39.0,29.89,NNW,340,3.0,5.0,20,0.00,,,0.00,712,Wunderground v.1.15,2013-04-20 23:14:00,
2013-04-20 16:20:00,84.9,35.2,29.89,WNW,300,3.0,4.0,17,0.00,,,0.00,693,Wunderground v.1.15,2013-04-20 23:20:00,
2013-04-20 16:26:00,85.0,38.1,29.89,NNW,347,3.0,4.0,19,0.00,,,0.00,675,Wunderground v.1.15,2013-04-20 23:26:00,
2013-04-20 16:32:00,85.3,37.0,29.89,NW,309,2.0,8.0,18,0.00,,,0.00,656,Wunderground v.1.15,2013-04-20 23:32:00,
2013-04-20 16:38:00,84.9,35.2,29.89,WNW,299,2.0,8.0,17,0.00,,,0.00,635,Wunderground v.1.15,2013-04-20 23:38:00,
2013-04-20 16:44:00,84.3,36.2,29.89,NW,312,3.0,9.0,18,0.00,,,0.00,615,Wunderground v.1.15,2013-04-20 23:44:00,
2013-04-20 16:50:00,84.6,36.4,29.89,NW,309,3.0,3.0,18,0.00,,,0.00,599,Wunderground v.1.15,2013-04-20 23:50:00,
2013-04-20 16:56:00,85.1,38.2,29.88,North,360,2.0,3.0,19,0.00,,,0.00,577,Wunderground v.1.15,2013-04-20 23:56:00,
2013-04-20 17:02:00,85.1,38.2,29.88,North,11,3.0,18.0,19,0.00,,,0.00,554,Wunderground v.1.15,2013-04-21 00:02:00,
2013-04-20 17:08:00,85.0,36.7,29.88,NW,319,2.0,18.0,18,0.00,,,0.00,538,Wunderground v.1.15,2013-04-21 00:08:00,
2013-04-20 17:14:00,85.3,37.0,29.88,NNW,346,2.0,2.0,18,0.00,,,0.00,513,Wunderground v.1.15,2013-04-21 00:14:00,
2013-04-20 17:20:00,85.2,38.3,29.89,NW,319,2.0,2.0,19,0.00,,,0.00,490,Wunderground v.1.15,2013-04-21 00:20:00,
2013-04-20 17:26:00,84.7,37.9,29.88,NW,307,3.0,7.0,19,0.00,,,0.00,471,Wunderground v.1.15,2013-04-21 00:26:00,
2013-04-20 17:32:00,84.6,36.4,29.88,NNW,329,2.0,3.0,18,0.00,,,0.00,446,Wunderground v.1.15,2013-04-21 00:32:00,
2013-04-20 17:38:00,84.7,36.5,29.88,WNW,289,2.0,4.0,18,0.00,,,0.00,427,Wunderground v.1.15,2013-04-21 00:38:00,
2013-04-20 17:44:00,83.8,35.8,29.88,NNW,337,2.0,4.0,18,0.00,,,0.00,58,Wunderground v.1.15,2013-04-21 00:44:00,
2013-04-20 17:50:00,83.1,35.2,29.88,WNW,303,2.0,2.0,18,0.00,,,0.00,56,Wunderground v.1.15,2013-04-21 00:50:00,
2013-04-20 17:56:00,82.8,34.9,29.87,WNW,287,3.0,4.0,18,0.00,,,0.00,54,Wunderground v.1.15,2013-04-21 00:56:00,
2013-04-20 18:02:00,82.4,36.0,29.87,West,271,2.0,13.0,19,0.00,,,0.00,54,Wunderground v.1.15,2013-04-21 01:02:00,
2013-04-20 18:08:00,82.5,36.1,29.87,NW,325,2.0,13.0,19,0.00,,,0.00,54,Wunderground v.1.15,2013-04-21 01:08:00,
2013-04-20 18:14:00,82.6,34.8,29.87,WNW,294,2.0,3.0,18,0.00,,,0.00,120,Wunderground v.1.15,2013-04-21 01:14:00,
2013-04-20 18:20:00,83.1,36.6,29.87,NW,308,3.0,3.0,19,0.00,,,0.00,269,Wunderground v.1.15,2013-04-21 01:20:00,
2013-04-20 18:26:00,83.3,35.4,29.87,West,279,2.0,3.0,18,0.00,,,0.00,243,Wunderground v.1.15,2013-04-21 01:26:00,
2013-04-20 18:32:00,83.8,37.1,29.87,West,280,0.0,1.0,19,0.00,,,0.00,218,Wunderground v.1.15,2013-04-21 01:32:00,
2013-04-20 18:38:00,84.0,35.9,29.87,NNW,332,1.0,3.0,18,0.00,,,0.00,190,Wunderground v.1.15,2013-04-21 01:38:00,
2013-04-20 18:44:00,84.0,37.3,29.87,NNW,332,1.0,1.0,19,0.00,,,0.00,165,Wunderground v.1.15,2013-04-21 01:44:00,
2013-04-20 18:50:00,84.2,36.1,29.87,NW,320,0.0,0.0,18,0.00,,,0.00,142,Wunderground v.1.15,2013-04-21 01:50:00,
2013-04-20 18:56:00,83.9,35.8,29.87,WNW,299,1.0,1.0,18,0.00,,,0.00,116,Wunderground v.1.15,2013-04-21 01:56:00,
2013-04-20 19:02:00,83.4,36.8,29.87,WNW,300,0.0,11.0,19,0.00,,,0.00,91,Wunderground v.1.15,2013-04-21 02:02:00,
2013-04-20 19:08:00,83.2,36.6,29.87,WNW,300,0.0,11.0,19,0.00,,,0.00,72,Wunderground v.1.15,2013-04-21 02:08:00,
2013-04-20 19:14:00,83.1,36.6,29.87,WNW,300,0.0,0.0,19,0.00,,,0.00,54,Wunderground v.1.15,2013-04-21 02:14:00,
2013-04-20 19:20:00,82.9,37.7,29.87,WNW,301,0.0,0.0,20,0.00,,,0.00,40,Wunderground v.1.15,2013-04-21 02:20:00,
2013-04-20 19:26:00,82.5,38.6,29.87,WNW,301,0.0,0.0,21,0.00,,,0.00,21,Wunderground v.1.15,2013-04-21 02:26:00,
2013-04-20 19:32:00,81.8,39.2,29.87,WNW,301,0.0,0.0,22,0.00,,,0.00,18,Wunderground v.1.15,2013-04-21 02:32:00,
2013-04-20 19:38:00,80.7,38.3,29.88,WNW,301,0.0,0.0,22,0.00,,,0.00,12,Wunderground v.1.15,2013-04-21 02:38:00,
2013-04-20 19:44:00,79.3,39.4,29.88,WNW,301,0.0,0.0,24,0.00,,,0.00,9,Wunderground v.1.15,2013-04-21 02:44:00,
2013-04-20 19:50:00,78.0,39.3,29.88,WNW,301,0.0,0.0,25,0.00,,,0.00,5,Wunderground v.1.15,2013-04-21 02:50:00,
2013-04-20 19:56:00,76.9,39.4,29.88,WNW,301,0.0,0.0,26,0.00,,,0.00,0,Wunderground v.1.15,2013-04-21 02:56:00,
2013-04-20 20:02:00,75.8,39.4,29.88,WNW,301,0.0,8.0,27,0.00,,,0.00,0,Wunderground v.1.15,2013-04-21 03:02:00,
2013-04-20 20:08:00,74.9,39.6,29.88,WNW,301,0.0,8.0,28,0.00,,,0.00,0,Wunderground v.1.15,2013-04-21 03:08:00,
2013-04-20 20:14:00,74.1,39.8,29.88,WNW,301,0.0,0.0,29,0.00,,,0.00,0,Wunderground v.1.15,2013-04-21 03:14:00,
2013-04-20 20:20:00,73.5,40.2,29.88,WNW,301,0.0,0.0,30,0.00,,,0.00,0,Wunderground v.1.15,2013-04-21 03:20:00,
2013-04-20 20:26:00,72.9,39.6,29.88,WNW,301,0.0,0.0,30,0.00,,,0.00,0,Wunderground v.1.15,2013-04-21 03:26:00,
2013-04-20 20:32:00,72.4,39.2,29.89,WNW,301,0.0,0.0,30,0.00,,,0.00,0,Wunderground v.1.15,2013-04-21 03:32:00,
2013-04-20 20:38:00,71.9,38.8,29.89,WNW,301,0.0,0.0,30,0.00,,,0.00,0,Wunderground v.1.15,2013-04-21 03:38:00,
2013-04-20 20:44:00,71.6,39.3,29.89,WNW,301,0.0,0.0,31,0.00,,,0.00,0,Wunderground v.1.15,2013-04-21 03:44:00,
2013-04-20 20:50:00,71.3,39.1,29.89,WNW,301,0.0,0.0,31,0.00,,,0.00,0,Wunderground v.1.15,2013-04-21 03:50:00,
2013-04-20 20:56:00,71.0,38.8,29.89,WNW,301,0.0,0.0,31,0.00,,,0.00,0,Wunderground v.1.15,2013-04-21 03:56:00,
2013-04-20 21:02:00,70.5,40.0,29.89,WNW,301,0.0,3.0,33,0.00,,,0.00,0,Wunderground v.1.15,2013-04-21 04:02:00,
2013-04-20 21:08:00,70.0,39.6,29.90,WNW,290,0.0,3.0,33,0.00,,,0.00,0,Wunderground v.1.15,2013-04-21 04:08:00,
2013-04-20 21:10:00,69.8,39.4,29.90,WNW,286,0.0,2.0,33,0.00,,,0.00,0,Wunderground v.1.15,2013-04-21 04:10:00,
2013-04-20 21:16:00,69.1,38.8,29.90,WNW,286,0.0,2.0,33,0.00,,,0.00,0,Wunderground v.1.15,2013-04-21 04:16:00,
2013-04-20 21:22:00,68.5,38.2,29.91,WNW,286,0.0,0.0,33,0.00,,,0.00,0,Wunderground v.1.15,2013-04-21 04:22:00,
2013-04-20 21:28:00,68.0,38.6,29.91,WNW,286,0.0,0.0,34,0.00,,,0.00,0,Wunderground v.1.15,2013-04-21 04:28:00,
2013-04-20 21:32:00,67.7,39.0,29.91,WNW,286,0.0,0.0,35,0.00,,,0.00,0,Wunderground v.1.15,2013-04-21 04:32:00,
2013-04-20 21:38:00,67.2,39.3,29.91,WNW,286,0.0,0.0,36,0.00,,,0.00,0,Wunderground v.1.15,2013-04-21 04:38:00,
2013-04-20 21:44:00,66.6,38.8,29.91,WNW,286,0.0,0.0,36,0.00,,,0.00,0,Wunderground v.1.15,2013-04-21 04:44:00,
2013-04-20 21:50:00,66.1,39.1,29.91,WNW,286,0.0,0.0,37,0.00,,,0.00,0,Wunderground v.1.15,2013-04-21 04:50:00,
2013-04-20 21:56:00,65.6,38.6,29.91,WNW,286,0.0,0.0,37,0.00,,,0.00,0,Wunderground v.1.15,2013-04-21 04:56:00,
2013-04-20 22:00:00,65.2,38.9,29.91,WNW,286,0.0,0.0,38,0.00,,,0.00,0,Wunderground v.1.15,2013-04-21 05:00:00,
2013-04-20 22:06:00,64.5,39.0,29.91,WNW,286,0.0,0.0,39,0.00,,,0.00,0,Wunderground v.1.15,2013-04-21 05:06:00,
2013-04-20 22:12:00,63.9,39.7,29.91,WNW,286,0.0,0.0,41,0.00,,,0.00,0,Wunderground v.1.15,2013-04-21 05:12:00,
2013-04-20 22:18:00,63.4,39.9,29.91,WNW,286,0.0,0.0,42,0.00,,,0.00,0,Wunderground v.1.15,2013-04-21 05:18:00,
2013-04-20 22:24:00,63.1,39.6,29.91,WNW,286,0.0,0.0,42,0.00,,,0.00,0,Wunderground v.1.15,2013-04-21 05:24:00,
2013-04-20 22:30:00,62.7,39.9,29.91,WNW,286,0.0,0.0,43,0.00,,,0.00,0,Wunderground v.1.15,2013-04-21 05:30:00,
2013-04-20 22:36:00,62.4,40.2,29.91,WNW,286,0.0,0.0,44,0.00,,,0.00,0,Wunderground v.1.15,2013-04-21 05:36:00,
2013-04-20 22:42:00,62.2,40.6,29.91,WNW,286,0.0,0.0,45,0.00,,,0.00,0,Wunderground v.1.15,2013-04-21 05:42:00,
2013-04-20 22:48:00,61.9,40.3,29.91,WNW,286,0.0,0.0,45,0.00,,,0.00,0,Wunderground v.1.15,2013-04-21 05:48:00,
2013-04-20 22:54:00,61.5,39.9,29.91,WNW,286,0.0,0.0,45,0.00,,,0.00,0,Wunderground v.1.15,2013-04-21 05:54:00,
2013-04-20 23:00:00,61.1,40.1,29.91,WNW,286,0.0,0.0,46,0.00,,,0.00,0,Wunderground v.1.15,2013-04-21 06:00:00,
2013-04-20 23:06:00,60.7,40.3,29.91,WNW,286,0.0,2.0,47,0.00,,,0.00,0,Wunderground v.1.15,2013-04-21 06:06:00,
2013-04-20 23:12:00,60.4,40.6,29.91,WNW,286,0.0,0.0,48,0.00,,,0.00,0,Wunderground v.1.15,2013-04-21 06:12:00,
2013-04-20 23:18:00,60.2,40.4,29.91,WNW,286,0.0,0.0,48,0.00,,,0.00,0,Wunderground v.1.15,2013-04-21 06:18:00,
2013-04-20 23:24:00,60.0,40.8,29.91,WNW,286,0.0,0.0,49,0.00,,,0.00,0,Wunderground v.1.15,2013-04-21 06:24:00,
2013-04-20 23:30:00,59.9,41.2,29.91,WNW,286,0.0,0.0,50,0.00,,,0.00,0,Wunderground v.1.15,2013-04-21 06:30:00,
2013-04-20 23:36:00,59.8,41.6,29.91,WNW,286,0.0,0.0,51,0.00,,,0.00,0,Wunderground v.1.15,2013-04-21 06:36:00,
2013-04-20 23:42:00,59.6,41.9,29.91,WNW,286,0.0,0.0,52,0.00,,,0.00,0,Wunderground v.1.15,2013-04-21 06:42:00,
2013-04-20 23:48:00,59.4,42.7,29.90,WNW,286,0.0,0.0,54,0.00,,,0.00,0,Wunderground v.1.15,2013-04-21 06:48:00,
2013-04-20 23:54:00,59.1,42.0,29.90,WNW,286,0.0,0.0,53,0.00,,,0.00,0,Wunderground v.1.15,2013-04-21 06:54:00,